sat.trackr.live / text

‹ back to catalog

HJ-2B

NORAD 46479 · 2020-067B

PAYLOAD ACTIVE UNKNOWN

§ Identity

Operator
Country
PRC
Launch date
2020-09-27
Launch site
TAISC
Launch vehicle
Mass (kg)
RCS (m²)

External: N2YO · Heavens-Above · Gunter

§ Orbital elements

Epoch: 2026-09-20T05:05:18.117600Z

Period
97.52 min
Inclination
97.8826°
Eccentricity
0.0000872
Mean motion
14.76566268 rev/d
Perigee alt
639.6 km
Apogee alt
640.8 km
Semi-major
7,018.3 km
B*
6.0173e-5
RAAN
340.3996°
Arg perigee
70.9208°
Mean anomaly
289.2097°
Rev number
32,228

§ Raw data

HJ-2B1 46479U 20067B   26263.21201525  .00000370  00000+0  60173-4 0  99922 46479  97.8826 340.3996 0000872  70.9208 289.2097 14.76566268322284

JSON: /api/v1/satellites/46479 · /tle

For live sub-satellite position, see the globe view (requires WebGL).

§ Visibility from observer

Set your observer location to see the next 7 days of passes ≥ 10°. The values pass through the URL so the page stays shareable.

No JS? Fill the form by hand. The geolocation button needs JavaScript.

§ Radio — SatNOGS DB

ModeDescriptionDownlinkUplink
BPSK S-band telemetry 2.243 GHz

1 transmitter · refreshed weekly from db.satnogs.org